Location: Newark
(45.0500°N, 9.5500°E)
Time: 01:18:45
(UTC+00:00)

ISS - Visible Passes

Search period start: 29 March 2020 00:00
Search period end: 08 April 2020 00:00
Orbit: 417 x 423 km, 51.6° (Epoch: 29 March)

Date Brightness Start Highest point End Pass type
(mag) Time Alt. Az. Time Alt. Az. Time Alt. Az.
29 Mar -2.8 19:45:08 10° NW 19:48:12 39° NNE 19:48:12 39° NNE visible
30 Mar -2.5 18:57:46 10° NW 19:00:51 32° NNE 19:02:43 18° ENE visible
30 Mar -1.1 20:34:32 10° WNW 20:35:41 20° WNW 20:35:41 20° WNW visible
31 Mar -3.6 19:47:08 10° WNW 19:50:14 70° NNW 19:50:14 70° NNW visible
01 Apr -3.4 18:59:47 10° NW 19:03:05 53° NNE 19:04:47 25° E visible
01 Apr -0.9 20:36:51 10° W 20:37:46 16° W 20:37:46 16° W visible
02 Apr -2.9 19:49:16 10° WNW 19:52:21 42° SW 19:52:21 42° SW visible
03 Apr -3.6 19:01:47 10° WNW 19:05:07 69° SSW 19:06:59 24° SE visible
04 Apr -1.5 19:51:56 10° W 19:54:10 17° SW 19:54:39 16° SW visible
05 Apr -2.0 19:04:02 10° W 19:06:54 26° SW 19:09:24 12° SSE visible
07 Apr -0.7 19:08:11 10° SW 19:08:26 10° SW 19:08:41 10° SW visible
